Location: Brahman Valley
(40.6513°N, 111.8855°W)
Time: 03:07:02
(UTC+00:00)

A-11 Canister half - Visible Passes

Search period start: 12 May 2021 00:00
Search period end: 22 May 2021 00:00
Orbit: 1514 x 1685 km, 47.2° (Epoch: 11 May)

Date Brightness Start Highest point End Pass type
(mag) Time Alt. Az. Time Alt. Az. Time Alt. Az.
12 May 9.0 04:18:51 10° WNW 04:28:11 77° SSW 04:34:08 27° SE visible
12 May 10.0 06:24:47 10° WNW 06:32:06 26° SW 06:32:19 26° SW visible
13 May 9.0 03:55:56 10° WNW 04:05:17 80° SSW 04:12:21 21° SE visible
13 May 9.9 06:01:43 10° WNW 06:09:16 28° SW 06:10:32 27° SW visible
14 May 9.0 03:33:01 10° WNW 03:42:22 83° SSW 03:50:35 16° SE visible
14 May 9.9 05:38:40 10° WNW 05:46:25 30° SW 05:48:47 27° SSW visible
15 May 9.1 03:10:07 10° WNW 03:19:27 86° SSW 03:28:52 11° ESE visible
15 May 9.9 05:15:39 10° WNW 05:23:34 32° SW 05:27:04 25° SSW visible
16 May 9.9 04:52:38 10° WNW 05:00:43 34° SW 05:05:23 23° S visible
17 May 9.8 04:29:39 10° WNW 04:37:53 36° SW 04:43:45 19° S visible
18 May 9.8 04:06:40 10° WNW 04:15:02 39° SW 04:22:10 15° SSE visible
19 May 9.8 03:43:41 10° WNW 03:52:11 41° SW 04:00:37 11° SSE visible
20 May 9.7 03:20:44 10° WNW 03:29:19 44° SW 03:38:08 10° SSE visible
21 May 9.7 02:57:47 10° WNW 03:06:28 47° SW 03:15:21 10° SSE visible
21 May 11.0 05:08:37 10° WSW 05:09:38 10° WSW 05:10:39 10° SW visible
